Location: Lafig�re
(44.4503°N, 4.0357°E)
Time: 14:54:05
(UTC+00:00)

deb Explorer IX - Pass Details

Date: 21 January 2021
Orbit: 537 x 1102 km, 38.8° (Epoch: 01 March)

Event Time Altitude Azimuth Distance (km) Brightness Sun altitude
Rises 22:51:10 0° 270° (W) 3,075 - -61.9°
Reaches altitude 10° 22:54:06 10° 255° (WSW) 2,056 - -62.1°
Maximum altitude 22:57:44 22° 205° (SSW) 1,317 - -62.5°
Drops below altitude 10° 23:01:04 10° 153° (SSE) 1,863 - -62.8°
Sets 23:03:35 0° 137° (SE) 2,711 - -63.0°
